www.pogodaiklimat.ru

Погода и климат >> Архив погоды >> Китай >> Хэйлунцзян >> Харбин


АРХИВ ПОГОДЫ в Харбине

Время (UTC), дата Ветер
(напр.,м/с)
 
Видим.   Явления Облачность Т
(С)
Тd
(С)
f
(%)
Тe
(С)
Тes
(С)
Комфортность P
(гПа)
Po
(гПа)
Тmin
(С)
Tmax
(С)
R
(мм)
R24
(мм)
S
(см)
15 13.09 З 3 22 км н/о +12.9 +12.4 97 +11 +11 по сезону 1010.6 993.5
18 13.09 З 3 11 км ?/? +11.9 +11.6 98 +10 +10 по сезону 1012.1 998.0 +20.9 0.1
21 13.09 З 2 5000 м дымка н/о +10.7 +10.4 98 +9 +9 прохладно 1013.9 996.6
00 14.09 штиль 0 28 км ясно +14.6 +12.6 88 +14 +20 по сезону 1015.3 1001.1 0.2
03 14.09 З 2 30 км ясно +20.4 +9.0 48 +22 +34 комфорт 1015.0 998.2
06 14.09 З 2 30 км ясно +22.3 +5.3 33 +23 +30 комфорт 1013.8 999.7 +9.9
09 14.09 Ю 2 30 км ясно +20.9 +9.5 48 +23 +23 комфорт 1013.6 996.9
12 14.09 Ю 2 30 км ясно +15.5 +9.6 68 +15 +15 по сезону 1014.6 1000.4
15 14.09 Ю 3 30 км н/о +15.6 +7.4 58 +15 +15 тепло 1013.4 996.4
18 14.09 Ю 3 30 км н/о +14.7 +8.6 67 +14 +14 тепло 1012.5 998.5 +22.9
21 14.09 Ю 3 30 км н/о +13.6 +9.6 77 +12 +12 по сезону 1011.8 994.7
00 15.09 Ю 5 30 км 8/8
[]
+18.3 +9.6 57 +18 +19 тепло 1011.3 997.2
03 15.09 Ю 6 30 км ясно +22.1 +10.0 46 +24 +28 комфорт 1009.0 992.4
06 15.09 Ю 6 30 км ясно +23.6 +8.8 39 +24 +27 комфорт 1005.8 991.9 +13.3
09 15.09 Ю 5 30 км ясно +22.3 +9.8 45 +24 +24 комфорт 1004.8 988.3
12 15.09 С 5 16 км слаб. дождь 10/10 1000 м
[]
+16.8 +11.5 71 +16 +16 тепло 1009.0 995.0 6
15 15.09 С 6 21 км слаб. дождь н/о +13.9 +3.9 51 +12 +12 по сезону 1013.0 995.9
18 15.09 СЗ 2 30 км ?/? +9.7 +0.1 51 +9 +9 по сезону 1015.7 1001.6 +23.9 0.3
21 15.09 З 3 30 км н/о +4.8 +1.3 78 +1 +1 очень
холодно
1017.3 999.6
00 16.09 З 2 30 км ясно +10.5 +1.6 54 +9 +14 прохладно 1018.6 1004.3 0.3
03 16.09 З 4 30 км ясно +14.3 -2.2 32 +13 +21 прохладно 1018.5 1001.3
06 16.09 З 4 30 км ясно +16.7 -1.4 29 +16 +21 прохладно 1017.0 1002.7 +4.6
09 16.09 З 2 30 км ясно +16.0 +0.9 36 +16 +16 по сезону 1017.0 1000.0
12 16.09 З 1 23 км ясно +11.1 +2.9 57 +11 +11 по сезону 1017.4 1002.9
15 16.09 З 1 28 км н/о +8.1 +7.3 95 +7 +7 прохладно 1017.2 999.7
18 16.09 Ю 2 30 км н/о +8.1 +3.8 74 +6 +6 прохладно 1016.6 1002.2 +17.3
21 16.09 Ю 3 27 км н/о +9.0 +1.7 60 +7 +7 прохладно 1016.2 998.8
00 17.09 Ю 6 30 км ясно +13.8 +2.4 46 +12 +14 по сезону 1014.6 1000.3
03 17.09 Ю 4 30 км ясно +18.0 +3.9 39 +18 +25 тепло 1012.3 995.4
06 17.09 Ю 4 30 км ясно +21.6 +5.1 34 +22 +27 комфорт 1008.3 994.2 +7.3
09 17.09 Ю 3 30 км 10/10 1000 м
[]
+19.2 +5.3 40 +20 +20 тепло 1007.1 990.4
12 17.09 С 3 10 км слаб. дождь 10/10 1000 м
[]
+8.5 +7.1 91 +6 +6 холодно 1012.1 997.7 1
15 17.09 З 2 30 км н/о +7.3 +6.6 95 +5 +5 холодно 1013.0 995.5
18 17.09 З 3 30 км ?/? +5.8 +3.1 83 +3 +3 холодно 1016.5 1002.2 +21.6 0.1
21 17.09 З 2 30 км н/о +3.3 +1.7 89 0 0 очень
холодно
1018.1 1000.3
00 18.09 З 4 30 км ясно +8.3 +2.5 67 +5 +8 очень
холодно
1019.2 1004.6 0.1
03 18.09 СЗ 3 30 км 8/8 1000 м
[]
+12.3 +0.1 43 +11 +13 холодно 1018.6 1001.3
06 18.09 СЗ 5 30 км 8/8 1000 м
[]
+14.0 -2.9 31 +13 +13 холодно 1017.5 1003.0 +3.3
09 18.09 З 2 30 км ясно +13.3 -0.7 38 +13 +13 прохладно 1017.4 1000.2
12 18.09 З 2 17 км ясно +7.9 +3.4 73 +6 +6 холодно 1017.4 1002.8
15 18.09 З 2 29 км н/о +7.5 +3.0 73 +6 +6 прохладно 1016.4 998.9
18 18.09 СЗ 3 30 км н/о +7.4 +0.8 63 +5 +5 прохладно 1017.3 1002.8 +14.0
21 18.09 З 3 30 км н/о +3.8 0.0 76 0 0 очень
холодно
1018.7 1000.9
00 19.09 З 3 30 км 3/3
[]
+8.4 +0.4 57 +6 +8 холодно 1019.9 1005.3
03 19.09 З 3 30 км 6/6
[]
+13.2 -2.3 34 +12 +16 прохладно 1019.8 1002.5
06 19.09 С 1 30 км 8/8 1000 м
[]
+16.0 -0.7 32 +17 +19 прохладно 1018.2 1003.8 +3.3
09 19.09 З 2 30 км 3/3 1000 м
[]
+13.3 +5.2 58 +13 +13 прохладно 1017.9 1000.7
12 19.09 З 2 17 км 3/3
[]
+10.1 +5.1 71 +9 +9 прохладно 1018.3 1003.8
15 19.09 З 2 15 км н/о +7.6 +6.5 93 +5 +5 холодно 1018.5 1000.9
18 19.09 Ю 1 8000 м н/о +6.4 +6.0 97 +5 +5 прохладно 1017.7 1003.3 +16.7
21 19.09 Ю 1 8000 м н/о +5.7 +5.3 97 +4 +4 холодно 1018.0 1000.3
00 20.09 ЮВ 2 19 км 6/6
[]
+12.8 +5.7 62 +12 +14 по сезону 1018.1 1003.7
03 20.09 В 3 15 км 3/3
[]
+17.2 +6.1 48 +17 +23 тепло 1017.2 1000.2
06 20.09 В 2 30 км 9/9
[]
+19.3 +5.0 39 +20 +21 тепло 1015.4 1001.1 +5.5
09 20.09 ЮЗ 1 30 км слаб. дождь 10/10 1500 м
[]
+17.2 +10.1 63 +18 +18 тепло 1016.1 999.1

 

Местоположение метеостанции Харбин (Хэйлунцзян, Китай): широта 45.75 долгота 126.76 высота над уровнем моря 143 м.

В архиве по умолчанию представлена погода в Харбине за последнюю неделю. Архивные данные за месяц целиком и за предыдущие месяцы, начиная с января 2011 года, Вы можете получить, выбрав интересующий диапазон дат из раскрывающегося списка и нажав кнопку "Ввод!".


*Определитесь, кто Вы:
робот инопланетянин человек

Внимание! Время в таблицах - всемирное. Для получения местного времени необходимо прибавить поправку, которая равна 8 ч.

Смотрите также архив погоды в соседних городах и на ближайших метеорологических станциях:

Погода в Шанчжи (Хэйлунцзян, Китай) (111 км)
Погода в Аньда (Хэйлунцзян, Китай) (132 км)
Погода в Тунхэ (Хэйлунцзян, Китай) (155 км)
Погода в Цянь Горлос (Гирин, Китай) (166 км)
Погода в Хайлуне (Хэйлунцзян, Китай) (187 км)
Погода в Чанчуне (Гирин, Китай) (239 км)
Погода в Муданьцзяне (Хэйлунцзян, Китай) (259 км)
Погода в Кэшане (Хэйлунцзян, Китай) (264 км)
Погода в Тайлае (Хэйлунцзян, Китай) (268 км)
Погода в Ичунь (Хэйлунцзян, Китай) (273 км)

Пояснения к столбцам:

Ветер - указаны скорость ветра в м/с - средняя за 10 мин, порывы в срок и между сроками (в фигурных скобках) и направление, откуда дует ветер: С - северный, СВ - северо-восточный, В - восточный, ЮВ - юго-восточный, Ю - южный, ЮЗ - юго-западный, З - западный, СЗ - северо-западный.
Видимость - горизонтальная дальность видимости в метрах или километрах. При видимости от 1 до 10 км при отсутствии осадков обычно наблюдается дымка, при ухудшении видимости до 1 км и менее - туман. В сухую погоду видимость может ухудшаться дымом, пылью или мглою.
Явления - указаны атмосферные явления, наблюдавшиеся в срок или в последний час перед сроком; фигурными скобками обозначены явления, наблюдавшиеся между сроками (за 1-3 часа до срока); квадратными скобками обозначены град или гололедные отложения с указанием их диаметра в мм.
Облачность - указаны через наклонную черту общая и нижняя облачность в баллах и высота нижней границы облаков в метрах; квадратными скобками обозначены формы облаков: Ci - перистые, Cs - перисто-слоистые, Cc - перисто-кучевые, Ac - высококучевые, As - высокослоистые, Sc - слоисто-кучевые, Ns - слоисто-дождевые, Cu - кучевые, Cb - кучево-дождевые. Подробнее классификацию облаков см. в Атласе облаков (PDF).
T - Температура воздуха - температура, измеренная на высоте 2 м над землей.
Td - Температура точки росы - температура, при понижении до которой содержащийся в воздухе водяной пар достигнет насыщения.
f - Относительная влажность воздуха - влажноcть воздуха, измеренная на высоте 2 м над землей.
Te - Эффективная температура - температура, которую ощущает одетый по сезону человек в тени. Характеристика душности погоды. При расчете учитывается влияние влажности воздуха и скорости ветра на теплоощущения человека.
Tes - Эффективная температура на солнце - температура, которую ощущает человек, с поправкой на солнечный нагрев. Характеристика знойности погоды. Зависит от высоты солнца над горизонтом, облачности и скорости ветра. Ночью, в пасмурную погоду, а также при ветре 12 м/с и более поправка равна нулю.
P - Атмосферное давление - приведенное к уровню моря атмосферное давление.
Po - Атмосферное давление - измеренное на уровне метеостанции атмосферное давление.
Tmin - Минимальная температура - минимум температуры воздуха на высоте 2 м над землей.
Tmax - Максимальная температура - максимум температуры воздуха на высоте 2 м над землей.
R - Количество осадков - Количество выпавших осадков за период времени, мм. При наведении курсора мыши на число - период времени, за который выпало указанное количество осадков.
R24 - Количество осадков - Количество выпавших осадков за 24 часа, мм.
S - Снежный покров - Высота снежного покрова, см. При наведении курсора мыши на число - состояние снежного покрова и степень покрытия местности в баллах.